Location: Bergnershof
(48.9468°N, 10.9431°E)
Time: 04:58:38
(UTC+00:00)

Meteor 1-23 Rocket - Pass Details

Date: 03 March 2021
Orbit: 837 x 888 km, 81.3° (Epoch: 11 April)

Event Time Altitude Azimuth Distance (km) Brightness Sun altitude
Rises 19:21:12 0° 349° (NNW) 3,406 7.7 -23.2°
Reaches altitude 10° 19:23:38 10° 350° (N) 2,470 6.9 -23.6°
Maximum altitude 19:29:14 78° 78° (ENE) 870 4.0 -24.5°
Enters shadow 19:30:21 58° 148° (SSE) 986 4.2 -24.7°
